Regional Weather Roundup
Issued by NWS

Home | Current Version | Previous Version | Text Only | Print | Product List | Glossary Off
Versions: 1 2 3 4 5 6 7 8 9 10 11 12 13 14 15 16 17 18 19 20 21 22 23 24 25 26 27 28 29 30 31 32 33 34 35 36 37 38 39 40 41 42 43 44 45 46 47 48 49 50

000
ASUS45 KBOU 061610
RWRCO

WEATHER ROUNDUP FOR COLORADO
NATIONAL WEATHER SERVICE DENVER/BOULDER CO
1000 AM MDT MON JUL 06 2015

NOTE: "FAIR" INDICATES FEW OR NO CLOUDS BELOW 12000 FEET WITH NO
SIGNIFICANT WEATHER AND/OR OBSTRUCTIONS TO VISIBILITY.

COZ001>005-013-030-031-061700-
...NORTHWEST COLORADO...

CITY           SKY/WX    TMP DP  RH WIND       PRES   REMARKS
CRAIG          MOSUNNY   64  56  75 CALM      30.29F
HAYDEN         MOSUNNY   63  52  67 CALM      30.30F
MEEKER         PTSUNNY   63  56  78 SW5       30.29F
MOUNT WERNER   NOT AVBL
STEAMBOAT SPGS PTSUNNY   59  54  83 CALM      30.32S
WALDEN         CLOUDY    54  50  87 N3        30.38R
$$

COZ006>008-011-061700-
...WEST CENTRAL VALLEYS...

CITY           SKY/WX    TMP DP  RH WIND       PRES   REMARKS
GRAND JUNCTION MOSUNNY   74  58  57 SE6       30.17F
MONTROSE       SUNNY     70  54  56 CALM      30.25F
EAGLE          PTSUNNY   64  55  72 CALM      30.31F
RIFLE          CLOUDY    66  57  72 W7        30.25R
DELTA          SUNNY     71  56  59 CALM      30.22S
NUCLA          SUNNY     70  55  60 CALM      30.29S
$$

COZ017>023-064>068-061700-
...SOUTHWEST COLORADO...

CITY           SKY/WX    TMP DP  RH WIND       PRES   REMARKS
DURANGO        PTSUNNY   67  52  58 CALM      30.25R
CORTEZ         MOSUNNY   73  53  49 SE5       30.21S
PAGOSA SPRINGS PTSUNNY   66  51  57 CALM      30.32S
TELLURIDE      SUNNY     63  51  65 W3        30.45R
WOLF CREEK PAS NOT AVBL
$$

COZ009-010-012-014-032>034-037-058>063-061700-
...CENTRAL COLORADO...

CITY           SKY/WX    TMP DP  RH WIND       PRES   REMARKS
ASPEN          CLOUDY    61  53  75 N6        30.35R
BUENA VISTA    PTSUNNY   65  49  55 SE3       30.34S
COPPER MTN     CLOUDY    48  43  81 W12       30.62S
BERTHOUD PASS  HAZE      37  30  75 N12G25    30.65R VSB<1/4
COTTONWOOD PAS NOT AVBL
GUNNISON       MOSUNNY   59  48  67 E5        30.38F
KREMMLING      CLOUDY    59  52  77 CALM      30.36S
LEADVILLE      PTSUNNY   58  42  55 N8        30.46S
MONARCH PASS   PTSUNNY   48  43  81 SW5       30.71R
SALIDA         PTSUNNY   67  50  55 CALM      30.39S
SUNLIGHT       MOSUNNY   54  46  76 NW3       30.57S
WILKERSON PASS CLOUDY    50  45  81 CALM      30.59S HAZE
$$

COZ069>075-061700-
...SAN LUIS VALLEY/SANGRE DE CRISTO MOUNTAINS...

CITY           SKY/WX    TMP DP  RH WIND       PRES   REMARKS
ALAMOSA        MOSUNNY   68  51  54 VRB3      30.30S
LA VETA PASS   FOG       48  46  93 MISG      30.49R VSB<1/4
SAGUACHE       PTSUNNY   64  50  59 NW13      30.33S
$$

COZ035-036-038>040-061700-
...NORTHERN COLORADO FRONT RANGE...

CITY           SKY/WX    TMP DP  RH WIND       PRES   REMARKS
DENVER INTL AP CLOUDY    60  57  89 NE12      30.26R
DMNS CITY PARK   N/A     60  58  92 NE10G18   30.27R
AURORA         LGT RAIN  60  60  99 NE12      30.28R FOG
FRONT RANGE AP CLOUDY    63  59  88 NE10      30.28R
ERIE MUNI ARPT CLOUDY    61  58  91 N6        30.27R
BOULDER MUN AP CLOUDY    59  59 100 N6        30.28R FOG
CENTENNIAL     CLOUDY    61  57  87 NE8       30.28R
BROOMFIELD     LGT RAIN  59  59 100 N13       30.29R FOG
FORT COLLINS   CLOUDY    61  55  82 NE5       30.29R
LONGMONT       DRIZZLE   63  60  89 NE7       30.29R
$$

COZ041-046-047-076>085-087-088-061700-
...PIKES PEAK/PALMER DIVIDE AND SOUTHERN FOOTHILLS...

CITY           SKY/WX    TMP DP  RH WIND       PRES   REMARKS
COLO. SPRINGS  PTSUNNY   70  55  59 N17       30.26R
A. F. ACADEMY  MOSUNNY   65  56  73 NE13      30.28R
ELLICOTT       PTSUNNY  N/A N/A N/A N18G25    30.25R
FALCON         PTSUNNY   66  54  66 N9        30.31S
FORT CARSON    PTSUNNY   72  55  55 N16       30.22S
LIMON          CLOUDY    62  58  86 N16       30.23S
MONUMENT HILL  NOT AVBL
TRINIDAD       LGT RAIN  65  58  78 N13       30.24R
$$

COZ042>045-048>051-090-091-061700-
...NORTHEAST COLORADO...

CITY           SKY/WX    TMP DP  RH WIND       PRES   REMARKS
GREELEY ARPT   CLOUDY    64  55  72 NE8       30.26R
AKRON          CLOUDY    62  58  86 N18G25    30.22R
BURLINGTON     CLOUDY    64  59  83 NE17G25   30.15R
WRAY           CLOUDY    67  58  72 N15       30.16R
STERLING       CLOUDY    63  55  77 NE15        N/A
HOLYOKE        PTSUNNY   66  55  68 N17G23    30.17R
FORT MORGAN    CLOUDY    62  55  76 N13       30.23R
$$

COZ086-089-092>099-061700-
...SOUTHEAST COLORADO...

CITY           SKY/WX    TMP DP  RH WIND       PRES   REMARKS
PUEBLO         PTSUNNY   78  58  49 NE12      30.17R
LA JUNTA       CLOUDY    71  61  70 N15       30.15R
LAMAR          CLOUDY    71  62  73 N12       30.11R
SPRINGFIELD      N/A     74  61  63 N25G33    30.11R
$$



USA.gov is the U.S. government's official web portal to all federal, state and local government web resources and services.